Hebron, NE

9:28 PM CST on December 08, 2019 (GMT -0600)
Hebron Municipal

Weather History for KHJH - September, 2019

Change the Weather History Date:

Wednesday, September 11, 2019

  Actual Average Record
Temperature  
Mean Temperature 82 °F -  
Max Temperature 90 °F 84 °F 97 °F (1956)
Min Temperature 74 °F 56 °F 37 °F (1959)
Cooling Degree Days 17    
Growing Degree Days 32 (Base 50)    
Moisture  
Dew Point 68 °F    
Average Humidity 65    
Maximum Humidity 78    
Minimum Humidity 46    
Precipitation  
Precipitation 0.00 in - - ()
Sea Level Pressure  
Sea Level Pressure 29.93 in    
Wind  
Wind Speed 12 mph (South)    
Max Wind Speed 20 mph    
Max Gust Speed 28 mph    
Visibility 10 miles    
Events      
Averages and records for this station are not official NWS values.
T = Trace of Precipitation, MM = Missing Value Source: NWS Daily Summary

Daily Weather History Graph

Daily Weather History Graph

Search for Another Location

Airport or City:

Astronomy

Sep. 11, 2019 Rise Set
Actual Time 7:07 AM CDT 7:46 PM CDT
Civil Twilight 6:39 AM CDT 8:13 PM CDT
Nautical Twilight 6:07 AM CDT 8:45 PM CDT
Astronomical Twilight 5:34 AM CDT 9:18 PM CDT
Moon 6:59 PM CDT (9/11) 4:30 AM CDT (9/11)
Length of Visible Light 13h 33m
Length of Day
12h 38m
Waxing Gibbous, 95% of the Moon is Illuminated
Sep 11
Waxing Gibbous
Sep 13
Full
Sep 21
Last Quarter
Sep 28
New
Oct 5
First Quarter

Hourly Weather History & Observations

Time (CDT) Temp. Heat Index Dew Point Humidity Pressure Visibility Wind Dir Wind Speed Gust Speed Precip Events Conditions
12:15 AM 78.1 °F - 70.2 °F 77% 29.97 in 10.0 mi South 10.4 mph 19.6 mph N/A   Scattered Clouds
12:35 AM 77.9 °F - 69.8 °F 76% 29.97 in 10.0 mi South 11.5 mph 19.6 mph N/A   Scattered Clouds
12:55 AM 77.5 °F - 69.8 °F 77% 29.97 in 10.0 mi South 10.4 mph - N/A   Scattered Clouds
1:15 AM 77.2 °F - 69.6 °F 77% 29.97 in 10.0 mi South 10.4 mph 18.4 mph N/A   Scattered Clouds
1:35 AM 77.2 °F - 69.3 °F 76% 29.96 in 10.0 mi South 12.7 mph 17.3 mph N/A   Scattered Clouds
1:55 AM 77.4 °F - 68.9 °F 75% 29.96 in 10.0 mi South 15.0 mph 19.6 mph N/A   Clear
2:35 AM 77.2 °F - 68.5 °F 75% 29.94 in 10.0 mi South 15.0 mph 21.9 mph N/A   Clear
2:55 AM 77.2 °F - 68.2 °F 74% 29.94 in 10.0 mi South 16.1 mph 23.0 mph N/A   Clear
3:15 AM 77.4 °F - 68.0 °F 73% 29.93 in 10.0 mi South 15.0 mph 21.9 mph N/A   Clear
3:35 AM 77.0 °F - 68.0 °F 74% 29.93 in 10.0 mi South 15.0 mph 23.0 mph N/A   Clear
3:55 AM 76.6 °F - 67.6 °F 74% 29.93 in 10.0 mi South 13.8 mph 26.5 mph N/A   Clear
4:15 AM 76.6 °F - 67.3 °F 73% 29.93 in 10.0 mi South 16.1 mph 21.9 mph N/A   Clear
4:35 AM 76.3 °F - 67.1 °F 73% 29.93 in 10.0 mi South 15.0 mph 26.5 mph N/A   Clear
4:55 AM 76.1 °F - 67.1 °F 74% 29.93 in 10.0 mi South 12.7 mph 19.6 mph N/A   Clear
5:15 AM 75.6 °F - 67.1 °F 75% 29.93 in 10.0 mi South 12.7 mph 20.7 mph N/A   Clear
5:35 AM 75.0 °F - 67.1 °F 76% 29.93 in 10.0 mi South 11.5 mph 19.6 mph N/A   Clear
5:55 AM 74.5 °F - 67.3 °F 78% 29.94 in 10.0 mi South 11.5 mph 20.7 mph N/A   Clear
6:15 AM 74.3 °F - 67.1 °F 78% 29.94 in 10.0 mi South 12.7 mph 17.3 mph N/A   Clear
6:35 AM 74.3 °F - 67.1 °F 78% 29.94 in 10.0 mi South 11.5 mph 19.6 mph N/A   Clear
6:55 AM 74.3 °F - 66.9 °F 78% 29.94 in 10.0 mi South 10.4 mph 17.3 mph N/A   Clear
7:15 AM 74.3 °F - 66.7 °F 77% 29.95 in 10.0 mi South 8.1 mph 16.1 mph N/A   Clear
7:35 AM 74.3 °F - 66.7 °F 77% 29.96 in 10.0 mi South 5.8 mph - N/A   Clear
7:55 AM 74.8 °F - 66.9 °F 76% 29.96 in 10.0 mi South 6.9 mph - N/A   Clear
8:15 AM 75.6 °F - 67.3 °F 75% 29.98 in 10.0 mi SSW 4.6 mph - N/A   Clear
8:35 AM 75.4 °F - 67.1 °F 75% 29.98 in 10.0 mi SSW 4.6 mph - N/A   Clear
8:55 AM 75.7 °F - 67.3 °F 75% 29.99 in 10.0 mi South 4.6 mph - N/A   Clear
9:15 AM 76.1 °F - 67.6 °F 75% 29.99 in 10.0 mi South 6.9 mph - N/A   Mostly Cloudy
9:35 AM 77.0 °F - 67.5 °F 72% 29.99 in 10.0 mi South 8.1 mph - N/A   Mostly Cloudy
9:55 AM 78.1 °F - 67.6 °F 70% 29.98 in 10.0 mi SSW 8.1 mph - N/A   Mostly Cloudy
10:35 AM 80.6 °F 83.2 °F 68.0 °F 65% 29.98 in 7.0 mi South 12.7 mph 16.1 mph N/A   Mostly Cloudy
10:55 AM 81.1 °F 84.0 °F 68.2 °F 65% 29.98 in 7.0 mi South 10.4 mph 17.3 mph N/A   Scattered Clouds
11:15 AM 83.7 °F 87.2 °F 68.7 °F 61% 29.98 in 10.0 mi South 12.7 mph 17.3 mph N/A   Mostly Cloudy
11:35 AM 84.2 °F 87.9 °F 68.7 °F 60% 29.97 in 7.0 mi South 11.5 mph 19.6 mph N/A   Scattered Clouds
11:55 AM 85.6 °F 89.7 °F 69.1 °F 58% 29.97 in 7.0 mi South 11.5 mph 17.3 mph N/A   Clear
12:15 PM 85.1 °F 89.4 °F 69.8 °F 60% 29.97 in 7.0 mi South 10.4 mph - N/A   Clear
12:35 PM 85.6 °F 89.7 °F 69.1 °F 58% 29.97 in 10.0 mi South 11.5 mph 17.3 mph N/A   Clear
12:55 PM 86.2 °F 89.7 °F 68.5 °F 55% 29.96 in 7.0 mi South 13.8 mph 19.6 mph N/A   Clear
1:15 PM 87.8 °F 92.2 °F 69.1 °F 54% 29.96 in 7.0 mi South 11.5 mph 20.7 mph N/A   Clear
1:35 PM 88.0 °F 92.1 °F 69.1 °F 53% 29.96 in 10.0 mi South 16.1 mph 21.9 mph N/A   Clear
1:55 PM 88.7 °F 93.5 °F 69.6 °F 53% 29.95 in 10.0 mi South 13.8 mph 20.7 mph N/A   Clear
2:15 PM 89.1 °F 93.7 °F 69.6 °F 52% 29.94 in 10.0 mi South 15.0 mph 20.7 mph N/A   Clear
2:35 PM 89.6 °F 94.7 °F 69.6 °F 52% 29.94 in 10.0 mi SSE 15.0 mph 20.7 mph N/A   Clear
2:55 PM 89.8 °F 94.6 °F 69.3 °F 51% 29.93 in 10.0 mi South 19.6 mph 24.2 mph N/A   Clear
3:15 PM 89.6 °F 93.9 °F 68.7 °F 50% 29.92 in 10.0 mi South 13.8 mph 27.6 mph N/A   Clear
3:35 PM 90.0 °F 94.1 °F 68.5 °F 49% 29.92 in 10.0 mi South 17.3 mph 23.0 mph N/A   Clear
3:55 PM 90.0 °F 93.6 °F 68.0 °F 48% 29.91 in 10.0 mi South 17.3 mph 25.3 mph N/A   Clear
4:15 PM 90.1 °F 93.5 °F 67.6 °F 47% 29.90 in 10.0 mi South 19.6 mph 26.5 mph N/A   Clear
4:35 PM 90.1 °F 93.1 °F 67.1 °F 46% 29.90 in 10.0 mi South 16.1 mph 24.2 mph N/A   Clear
4:55 PM 90.1 °F 93.1 °F 67.1 °F 46% 29.90 in 10.0 mi South 17.3 mph 24.2 mph N/A   Clear
5:15 PM 89.6 °F 92.6 °F 67.1 °F 47% 29.89 in 10.0 mi South 18.4 mph 24.2 mph N/A   Clear
5:35 PM 89.2 °F 92.4 °F 66.9 °F 48% 29.89 in 10.0 mi South 17.3 mph 25.3 mph N/A   Clear
5:55 PM 88.9 °F 92.2 °F 67.3 °F 49% 29.89 in 10.0 mi South 13.8 mph 19.6 mph N/A   Clear
6:15 PM 88.3 °F 91.2 °F 67.1 °F 49% 29.89 in 10.0 mi South 11.5 mph 25.3 mph N/A   Clear
6:35 PM 87.3 °F 90.2 °F 67.1 °F 51% 29.88 in 10.0 mi South 12.7 mph 19.6 mph N/A   Clear
6:55 PM 86.2 °F 89.1 °F 67.3 °F 53% 29.89 in 10.0 mi South 10.4 mph 17.3 mph N/A   Clear
7:15 PM 85.1 °F 87.9 °F 67.5 °F 55% 29.88 in 10.0 mi South 10.4 mph - N/A   Clear
7:35 PM 83.5 °F 86.2 °F 67.5 °F 58% 29.88 in 10.0 mi South 9.2 mph - N/A   Clear
7:55 PM 82.8 °F 85.3 °F 67.1 °F 59% 29.88 in 10.0 mi SSE 11.5 mph - N/A   Clear
8:15 PM 81.5 °F 83.9 °F 67.1 °F 61% 29.88 in 10.0 mi SSE 9.2 mph - N/A   Clear
8:35 PM 81.0 °F 83.3 °F 66.7 °F 62% 29.88 in 10.0 mi SSE 9.2 mph - N/A   Clear
8:55 PM 80.6 °F 82.9 °F 66.9 °F 63% 29.88 in 10.0 mi South 12.7 mph 20.7 mph N/A   Clear
9:15 PM 80.1 °F 82.3 °F 66.7 °F 64% 29.89 in 10.0 mi SSE 11.5 mph 17.3 mph N/A   Clear
9:30 PM 79.7 °F - 66.7 °F 64% 29.90 in 10.0 mi SSE 10.4 mph - N/A   Clear
9:55 PM 79.7 °F - 66.4 °F 64% 29.89 in 10.0 mi SSE 13.8 mph 18.4 mph N/A   Clear
10:35 PM 78.6 °F - 66.6 °F 66% 29.89 in 10.0 mi SSE 11.5 mph 17.3 mph N/A   Clear
10:55 PM 78.4 °F - 66.7 °F 67% 29.88 in 10.0 mi SSE 13.8 mph 21.9 mph N/A   Clear
11:15 PM 78.1 °F - 67.1 °F 69% 29.86 in 10.0 mi South 17.3 mph 23.0 mph N/A   Clear
11:35 PM 77.9 °F - 67.1 °F 69% 29.86 in 10.0 mi South 13.8 mph 23.0 mph N/A   Clear
11:55 PM 77.9 °F - 67.1 °F 69% 29.88 in 10.0 mi South 15.0 mph 23.0 mph N/A   Clear